Home   Weather   New Orleans   Past weeks
Flag for USA

Past Weather in New Orleans, Louisiana, USA — Yesterday and Last 2 Weeks

Now
80 °F

Fog.


Feels Like: 85 °F
Forecast: 90 / 78 °F
Wind: No wind

Location: Lakefront Airport

Current Time: Jul 17, 2019 at 7:57:31 am

Latest Report: Jul 17, 2019 at 6:53 am


Visibility: 6 mi

Pressure: 30.09 "Hg

Humidity: 87%

Dew Point: 76 °F

Location of New OrleansLocation

Past Weather in New Orleans — Graph

°F

New Orleans Temperature Yesterday

Maximum temperature yesterday: 92 °F (at 1:53 pm)
Minimum temperature yesterday: 80 °F (at 2:53 am)
Average temperature yesterday: 84 °F

High & Low Weather Summary for the Past Weeks

 TemperatureHumidityPressure
High95 °F (Jul 5, 3:53 pm)94% (Jul 10, 7:19 am)30.11 "Hg (Jul 10, 7:19 am)
Low75 °F (Jul 14, 2:01 pm)49% (Jul 4, 3:53 pm)29.64 "Hg (Jul 12, 5:53 pm)
Average84 °F76%29.94 "Hg
* Reported Jul 2 5:53 am — Jul 17 5:53 am, New Orleans. Weather by CustomWeather, © 2019

Note: Actual official high and low records may vary slightly from our data, if they occured in-between our weather recording intervals... More about our weather records

Advertising

New Orleans Weather History for the Previous 24 Hours

Scroll right to see more
 ConditionsComfort  
Time TempWeatherWind HumidityBarometerVisibility
5:53 am
Wed, Jul 17
79 °FClear.5 mph90%30.07 "Hg8 mi
4:53 am80 °FClear.3 mph87%30.05 "Hg8 mi
3:53 am79 °FClear.No wind90%30.06 "Hg8 mi
2:53 am80 °FClear.5 mph85%30.06 "Hg8 mi
1:53 am80 °FClear.7 mph85%30.07 "Hg8 mi
12:53 am80 °FClear.6 mph85%30.08 "Hg8 mi
11:53 pm
Tue, Jul 16
80 °FClear.5 mph87%30.08 "Hg8 mi
10:53 pm81 °FClear.6 mph82%30.08 "Hg8 mi
9:53 pm83 °FClear.8 mph77%30.06 "Hg8 mi
8:53 pm83 °FClear.5 mph77%30.05 "Hg8 mi
7:53 pm85 °FSunny.10 mph70%30.05 "Hg7 mi
6:53 pm87 °FSunny.12 mph61%30.03 "Hg8 mi
5:53 pm89 °FSunny.14 mph55%30.03 "Hg8 mi
4:53 pm91 °FSunny.14 mph54%30.03 "Hg10 mi
3:53 pm92 °FPassing clouds.14 mph51%30.05 "Hg10 mi
2:53 pm92 °FSunny.17 mph54%30.06 "Hg10 mi
1:53 pm92 °FPassing clouds.12 mph56%30.07 "Hg10 mi
12:53 pm91 °FPassing clouds.8 mph57%30.09 "Hg10 mi
11:53 am90 °FBroken clouds.9 mph59%30.10 "Hg10 mi
10:53 am89 °FPassing clouds.8 mph63%30.11 "Hg9 mi
9:53 am86 °FSunny.9 mph70%30.10 "Hg9 mi
8:53 am84 °FPassing clouds.12 mph80%30.09 "Hg8 mi
7:53 am82 °FFog.8 mph88%30.09 "Hg6 mi
Weather by CustomWeather, © 2019

See weather overview